EN

Hourly Weather Accrington

Today, 20 October, Tuesday

Time Temperature Precipitation Wind Pressure Humidity
00:00 +8°C° 0 mm 4 mps 735 mmHg 81%
01:00 +8°C° 0.3 mm 4 mps 734 mmHg 83%
02:00 +8°C° 0.3 mm 4 mps 734 mmHg 85%
03:00 +8°C° 0.3 mm 4 mps 733 mmHg 88%
04:00 +10°C° 0.3 mm 4 mps 732 mmHg 90%
05:00 +10°C° 0.3 mm 3 mps 732 mmHg 92%
06:00 +11°C° 0.3 mm 3 mps 732 mmHg 95%
07:00 +11°C° 0 mm 4 mps 732 mmHg 93%
08:00 +12°C° 0 mm 4 mps 732 mmHg 91%
09:00 +13°C° 0 mm 5 mps 732 mmHg 89%
10:00 +14°C° 0 mm 6 mps 732 mmHg 83%
11:00 +14°C° 0 mm 6 mps 732 mmHg 78%
12:00 +15°C° 0 mm 7 mps 733 mmHg 72%
13:00 +15°C° 0.1 mm 6 mps 733 mmHg 72%
14:00 +15°C° 0.1 mm 6 mps 733 mmHg 72%
15:00 +15°C° 0.1 mm 5 mps 732 mmHg 71%
16:00 +14°C° 0 mm 5 mps 733 mmHg 74%
17:00 +13°C° 0 mm 4 mps 733 mmHg 76%
18:00 +12°C° 0 mm 4 mps 733 mmHg 79%
19:00 +12°C° 0 mm 4 mps 733 mmHg 82%
20:00 +12°C° 0 mm 4 mps 733 mmHg 85%
21:00 +12°C° 0 mm 3 mps 733 mmHg 88%
22:00 +12°C° 0.4 mm 3 mps 733 mmHg 89%
23:00 +12°C° 0.4 mm 3 mps 733 mmHg 90%

Tomorrow, 21 October, Wednesday

Time Temperature Precipitation Wind Pressure Humidity
00:00 +12°C° 0.4 mm 3 mps 733 mmHg 91%
01:00 +12°C° 0.2 mm 3 mps 732 mmHg 91%
02:00 +12°C° 0.2 mm 3 mps 732 mmHg 91%
03:00 +13°C° 0.2 mm 2 mps 732 mmHg 91%
04:00 +13°C° 0.2 mm 2 mps 731 mmHg 91%
05:00 +13°C° 0.2 mm 2 mps 731 mmHg 92%
06:00 +13°C° 0.2 mm 2 mps 730 mmHg 92%
07:00 +13°C° 1 mm 2 mps 730 mmHg 93%
08:00 +13°C° 1 mm 1 mps 730 mmHg 95%
09:00 +12°C° 1 mm 1 mps 730 mmHg 96%
10:00 +13°C° 0.2 mm 1 mps 730 mmHg 94%
11:00 +13°C° 0.2 mm 2 mps 731 mmHg 92%
12:00 +13°C° 0.2 mm 2 mps 731 mmHg 91%
13:00 +13°C° 0.4 mm 2 mps 731 mmHg 92%
14:00 +12°C° 0.4 mm 3 mps 732 mmHg 93%
15:00 +11°C° 0.4 mm 3 mps 732 mmHg 93%
16:00 +11°C° 0.6 mm 3 mps 733 mmHg 94%
17:00 +11°C° 0.6 mm 3 mps 733 mmHg 94%
18:00 +11°C° 0.6 mm 3 mps 733 mmHg 94%
19:00 +11°C° 0 mm 3 mps 734 mmHg 94%
20:00 +10°C° 0 mm 3 mps 734 mmHg 94%
21:00 +10°C° 0 mm 3 mps 735 mmHg 93%
22:00 +9°C° 0 mm 3 mps 735 mmHg 93%
23:00 +9°C° 0 mm 3 mps 735 mmHg 92%

Day after tomorrow, 22 October, Thursday

Time Temperature Precipitation Wind Pressure Humidity
00:00 +9°C° 0 mm 3 mps 735 mmHg 92%
01:00 +8°C° 0 mm 3 mps 735 mmHg 92%
02:00 +8°C° 0 mm 3 mps 735 mmHg 93%
03:00 +8°C° 0 mm 3 mps 735 mmHg 93%
04:00 +8°C° 0.5 mm 3 mps 734 mmHg 92%
05:00 +8°C° 0.5 mm 4 mps 734 mmHg 92%
06:00 +8°C° 0.5 mm 4 mps 734 mmHg 91%
07:00 +10°C° 0.3 mm 4 mps 734 mmHg 90%
08:00 +10°C° 0.3 mm 4 mps 734 mmHg 89%
09:00 +9°C° 0.3 mm 5 mps 734 mmHg 89%
10:00 +10°C° 0.7 mm 4 mps 734 mmHg 89%
11:00 +11°C° 0.7 mm 4 mps 735 mmHg 90%
12:00 +11°C° 0.7 mm 3 mps 735 mmHg 90%
13:00 +10°C° 0.2 mm 5 mps 735 mmHg 89%
14:00 +10°C° 0.2 mm 6 mps 735 mmHg 88%
15:00 +10°C° 0.2 mm 7 mps 735 mmHg 87%
16:00 +10°C° 0.1 mm 6 mps 736 mmHg 88%
17:00 +9°C° 0.1 mm 6 mps 736 mmHg 89%
18:00 +9°C° 0.1 mm 5 mps 737 mmHg 90%
19:00 +9°C° 0.1 mm 5 mps 737 mmHg 91%
20:00 +8°C° 0.1 mm 4 mps 738 mmHg 91%
21:00 +9°C° 0.1 mm 3 mps 738 mmHg 92%
22:00 +9°C° 0.1 mm 3 mps 738 mmHg 91%
23:00 +8°C° 0.1 mm 4 mps 739 mmHg 91%

23 October, Friday

Time Temperature Precipitation Wind Pressure Humidity
00:00 +8°C° 0.1 mm 4 mps 739 mmHg 91%
01:00 +7°C° 0.1 mm 4 mps 739 mmHg 88%
02:00 +7°C° 0.1 mm 4 mps 739 mmHg 86%
03:00 +6°C° 0.1 mm 5 mps 739 mmHg 83%
04:00 +6°C° 0 mm 4 mps 739 mmHg 84%
05:00 +6°C° 0 mm 4 mps 739 mmHg 84%
06:00 +5°C° 0 mm 4 mps 738 mmHg 84%
07:00 +6°C° 0.2 mm 4 mps 738 mmHg 86%
08:00 +6°C° 0.2 mm 4 mps 738 mmHg 88%
09:00 +7°C° 0.2 mm 5 mps 738 mmHg 89%
10:00 +7°C° 0.8 mm 5 mps 738 mmHg 86%
11:00 +8°C° 0.8 mm 5 mps 738 mmHg 83%
12:00 +8°C° 0.8 mm 6 mps 739 mmHg 80%
13:00 +8°C° 0.1 mm 7 mps 739 mmHg 77%
14:00 +8°C° 0.1 mm 7 mps 739 mmHg 74%
15:00 +7°C° 0.1 mm 8 mps 740 mmHg 71%
16:00 +6°C° 0 mm 7 mps 740 mmHg 73%
17:00 +6°C° 0 mm 7 mps 741 mmHg 74%
18:00 +5°C° 0 mm 6 mps 741 mmHg 76%
19:00 +5°C° 0 mm 6 mps 742 mmHg 77%
20:00 +6°C° 0 mm 5 mps 742 mmHg 79%
21:00 +6°C° 0 mm 5 mps 743 mmHg 80%
22:00 +6°C° 0.1 mm 4 mps 743 mmHg 81%
23:00 +5°C° 0.1 mm 4 mps 743 mmHg 82%

24 October, Saturday

Time Temperature Precipitation Wind Pressure Humidity
00:00 +5°C° 0.1 mm 4 mps 743 mmHg 83%
01:00 +5°C° 0 mm 4 mps 743 mmHg 84%
02:00 +5°C° 0 mm 4 mps 743 mmHg 84%
03:00 +5°C° 0 mm 4 mps 742 mmHg 85%
04:00 +6°C° 0 mm 4 mps 742 mmHg 85%
05:00 +6°C° 0 mm 4 mps 742 mmHg 85%
06:00 +6°C° 0 mm 5 mps 741 mmHg 86%
07:00 +7°C° 0 mm 5 mps 741 mmHg 85%
08:00 +7°C° 0 mm 5 mps 741 mmHg 84%
09:00 +8°C° 0 mm 6 mps 741 mmHg 83%
10:00 +9°C° 0 mm 6 mps 740 mmHg 82%
11:00 +10°C° 0 mm 7 mps 740 mmHg 81%
12:00 +10°C° 0 mm 7 mps 740 mmHg 80%
13:00 +10°C° 0 mm 7 mps 739 mmHg 80%
14:00 +11°C° 0 mm 7 mps 738 mmHg 80%
15:00 +11°C° 0 mm 7 mps 738 mmHg 79%
16:00 +11°C° 0 mm 7 mps 737 mmHg 80%
17:00 +11°C° 0 mm 7 mps 736 mmHg 81%
18:00 +11°C° 0 mm 7 mps 736 mmHg 82%
19:00 +12°C° 0 mm 7 mps 736 mmHg 81%
20:00 +12°C° 0 mm 8 mps 735 mmHg 81%
21:00 +12°C° 0 mm 8 mps 735 mmHg 81%
22:00 +12°C° 0 mm 9 mps 734 mmHg 81%
23:00 +12°C° 0 mm 9 mps 733 mmHg 80%

25 October, Sunday

Time Temperature Precipitation Wind Pressure Humidity
00:00 +12°C° 0 mm 10 mps 733 mmHg 80%
01:00 +12°C° 0.2 mm 10 mps 732 mmHg 81%
02:00 +12°C° 0.2 mm 10 mps 731 mmHg 81%
03:00 +12°C° 0.2 mm 10 mps 731 mmHg 82%
04:00 +11°C° 1.4 mm 8 mps 731 mmHg 84%
05:00 +10°C° 1.4 mm 7 mps 731 mmHg 87%
06:00 +10°C° 1.4 mm 5 mps 732 mmHg 90%
07:00 +10°C° 0.4 mm 5 mps 732 mmHg 87%
08:00 +10°C° 0.4 mm 5 mps 733 mmHg 85%
09:00 +10°C° 0.4 mm 5 mps 733 mmHg 83%
10:00 +10°C° 0 mm 5 mps 734 mmHg 79%
11:00 +10°C° 0 mm 5 mps 734 mmHg 74%
12:00 +11°C° 0 mm 4 mps 734 mmHg 70%
13:00 +11°C° 0.1 mm 4 mps 734 mmHg 71%
14:00 +11°C° 0.1 mm 4 mps 734 mmHg 72%
15:00 +11°C° 0.1 mm 4 mps 734 mmHg 72%
16:00 +10°C° 0 mm 4 mps 735 mmHg 75%
17:00 +8°C° 0 mm 4 mps 735 mmHg 77%
18:00 +9°C° 0 mm 3 mps 735 mmHg 79%
19:00 +8°C° 0 mm 3 mps 735 mmHg 81%
20:00 +8°C° 0 mm 3 mps 735 mmHg 84%
21:00 +7°C° 0 mm 3 mps 735 mmHg 86%
22:00 +7°C° 0 mm 3 mps 735 mmHg 86%
23:00 +7°C° 0 mm 3 mps 735 mmHg 87%

26 October, Monday

Time Temperature Precipitation Wind Pressure Humidity
00:00 +5°C° 0 mm 3 mps 734 mmHg 87%
01:00 +6°C° 0.1 mm 4 mps 734 mmHg 87%
02:00 +6°C° 0.1 mm 5 mps 734 mmHg 87%
03:00 +7°C° 0.1 mm 5 mps 734 mmHg 86%
04:00 +6°C° 0.1 mm 5 mps 734 mmHg 86%
05:00 +6°C° 0.1 mm 5 mps 735 mmHg 87%
06:00 +6°C° 0.1 mm 4 mps 735 mmHg 87%
07:00 +6°C° 0.1 mm 5 mps 735 mmHg 85%
08:00 +6°C° 0.1 mm 5 mps 734 mmHg 83%
09:00 +7°C° 0.1 mm 6 mps 734 mmHg 81%
10:00 +6°C° 0.1 mm 7 mps 734 mmHg 78%
11:00 +8°C° 0.1 mm 7 mps 733 mmHg 76%
12:00 +7°C° 0.1 mm 8 mps 732 mmHg 74%
13:00 +7°C° 2.4 mm 8 mps 731 mmHg 78%
14:00 +7°C° 2.4 mm 8 mps 731 mmHg 83%
15:00 +6°C° 2.4 mm 8 mps 730 mmHg 88%
16:00 +6°C° 0.8 mm 8 mps 730 mmHg 85%
17:00 +6°C° 0.8 mm 7 mps 730 mmHg 82%
18:00 +6°C° 0.8 mm 7 mps 730 mmHg 80%
19:00 +6°C° 0.5 mm 8 mps 731 mmHg 79%
20:00 +6°C° 0.5 mm 8 mps 731 mmHg 79%
21:00 +6°C° 0.5 mm 8 mps 732 mmHg 79%
22:00 +6°C° 0.2 mm 8 mps 732 mmHg 80%
23:00 +5°C° 0.2 mm 7 mps 732 mmHg 81%
Show more